This is the latest recevied weather packets stored in our database for station/object N8HON. If no packets are shown the sender has not sent any weather packets the latest 10 day(s).
| Time | Temp. | Humidity | Pressure | Rain* | Wind** | Luminosity | Snow |
|---|---|---|---|---|---|---|---|
| 1777771827 | 6.11° C | 57% | 1012.5 hPa | 0 mm | - | 0 W/m² | - |
| 1777771524 | 6.11° C | 57% | 1012.5 hPa | 0 mm | - | 0 W/m² | - |
| 1777771220 | 6.67° C | 54% | 1012.6 hPa | 0 mm | - | 0 W/m² | - |
| 1777770917 | 6.67° C | 55% | 1012.6 hPa | 0 mm | - | 0 W/m² | - |
| 1777770614 | 6.67° C | 55% | 1012.6 hPa | 0 mm | - | 0 W/m² | - |
| 1777770310 | 6.67° C | 54% | 1012.7 hPa | 0 mm | - | 0 W/m² | - |
| 1777770009 | 6.67° C | 53% | 1012.5 hPa | 0 mm | - | 0 W/m² | - |
| 1777769705 | 6.67° C | 54% | 1012.2 hPa | 0 mm | - | 0 W/m² | - |
| 1777769402 | 6.67° C | 56% | 1012.3 hPa | 0 mm | - | 0 W/m² | - |
| 1777769098 | 6.67° C | 53% | 1012.2 hPa | 0 mm | - | 0 W/m² | - |
| 1777768796 | 6.67° C | 54% | 1012 hPa | 0 mm | - | 0 W/m² | - |
| 1777768493 | 7.22° C | 55% | 1012 hPa | 0 mm | - | 0 W/m² | - |
| 1777768190 | 7.22° C | 55% | 1012.1 hPa | 0 mm | - | 0 W/m² | - |
| 1777767887 | 7.22° C | 52% | 1011.8 hPa | 0 mm | - | 0 W/m² | - |
| 1777767583 | 7.22° C | 54% | 1012.3 hPa | 0 mm | - | 0 W/m² | - |
| 1777767280 | 7.22° C | 54% | 1012.2 hPa | 0 mm | - | 0 W/m² | - |
| 1777766978 | 7.22° C | 55% | 1011.7 hPa | 0 mm | - | 0 W/m² | - |
| 1777766674 | 7.22° C | 54% | 1012 hPa | 0 mm | - | 1 W/m² | - |
| 1777766372 | 7.22° C | 56% | 1011.8 hPa | 0 mm | - | 4 W/m² | - |
| 1777766068 | 7.22° C | 52% | 1012 hPa | 0 mm | - | 7 W/m² | - |
| 1777765766 | 7.22° C | 52% | 1011.6 hPa | 0 mm | - | 9 W/m² | - |
| 1777765462 | 7.78° C | 52% | 1011.6 hPa | 0 mm | - | 13 W/m² | - |
| 1777765160 | 7.78° C | 51% | 1011.7 hPa | 0 mm | - | 16 W/m² | - |
| 1777764855 | 8.33° C | 50% | 1011.3 hPa | 0 mm | - | 17 W/m² | - |
| 1777764552 | 8.33° C | 48% | 1011.4 hPa | 0 mm | - | 18 W/m² | - |
* Rain latest hour (hover to see other rain measurements)
** Current wind speed in m/s (hover to see current wind gust speed)